Location: Bijele Vode
(45.2833°N, 16.2000°E)
Time: 05:07:07
(UTC+00:00)

CENTAUR R/B - Pass Details

Date: 25 January 2021
Orbit: 742 x 1446 km, 63.5° (Epoch: 01 March)

Event Time Altitude Azimuth Distance (km) Brightness Sun altitude
Rises 05:04:35 0° 212° (SSW) 3,359 5.1 -13.8°
Reaches altitude 10° 05:06:51 10° 212° (SSW) 2,499 4.5 -13.4°
Maximum altitude 05:12:39 82° 126° (SE) 983 2.6 -12.4°
Drops below altitude 10° 05:19:39 10° 39° (NE) 2,987 5.4 -11.2°
Sets 05:22:36 0° 39° (NE) 4,061 6.1 -10.7°
